timestamp,wind_dir_avg,wind_spd_avg,wind_spd_max_dir,wind_spd_gust,battery_voltage,lat,long
2022-10-23 00:04:00+00:00,243.0,9.19,247.0,10.66,12.49,47.59359,-54.27349
2022-10-23 00:14:00+00:00,243.0,8.36,250.0,11.14,12.49,47.59359,-54.27349
2022-10-23 00:24:00+00:00,232.0,6.81,243.0,10.7,12.49,47.59359,-54.27349
2022-10-23 00:34:00+00:00,234.0,7.72,242.0,10.69,12.49,47.59359,-54.27349
2022-10-23 00:44:00+00:00,239.0,8.42,249.0,11.19,12.49,47.59359,-54.27349
2022-10-23 00:54:00+00:00,245.0,10.48,245.0,11.41,12.49,47.59359,-54.27349
2022-10-23 01:04:00+00:00,249.0,9.96,253.0,11.2,12.49,47.59359,-54.27349
2022-10-23 01:14:01+00:00,253.0,9.86,254.0,11.01,12.49,47.59359,-54.27349
2022-10-23 01:24:01+00:00,258.0,8.95,251.0,10.39,12.49,47.59359,-54.27349
2022-10-23 01:34:01+00:00,257.0,8.27,257.0,10.67,12.49,47.59359,-54.27349
2022-10-23 01:44:01+00:00,254.0,9.55,254.0,10.78,12.49,47.59359,-54.27349
2022-10-23 01:54:01+00:00,246.0,5.06,258.0,6.56,12.49,47.59359,-54.27349
2022-10-23 02:04:01+00:00,236.0,5.22,234.0,5.84,12.49,47.59359,-54.27349
2022-10-23 02:14:01+00:00,246.0,7.08,253.0,10.46,12.41,47.59359,-54.27349
2022-10-23 02:24:01+00:00,235.0,5.42,235.0,6.61,12.41,47.59359,-54.27349
2022-10-23 02:34:01+00:00,239.0,5.13,246.0,6.97,12.41,47.59359,-54.27349
2022-10-23 02:44:01+00:00,247.0,6.47,251.0,10.01,12.41,47.59359,-54.27349
2022-10-23 02:54:01+00:00,233.0,4.58,235.0,4.99,12.41,47.59359,-54.27349
2022-10-23 03:04:01+00:00,230.0,5.77,239.0,7.66,12.41,47.59359,-54.27349
2022-10-23 03:14:01+00:00,241.0,5.67,257.0,9.27,12.41,47.59359,-54.27349
2022-10-23 03:24:01+00:00,231.0,5.5,229.0,6.16,12.41,47.59359,-54.27349
2022-10-23 03:34:01+00:00,228.0,5.23,235.0,6.39,12.41,47.59359,-54.27349
2022-10-23 03:44:01+00:00,231.0,6.67,240.0,9.51,12.41,47.59359,-54.27349
2022-10-23 03:54:01+00:00,227.0,8.32,239.0,11.31,12.41,47.59359,-54.27349
2022-10-23 04:04:01+00:00,231.0,7.79,240.0,10.66,12.41,47.59359,-54.27349
2022-10-23 04:14:01+00:00,225.0,6.39,239.0,11.02,12.41,47.59359,-54.27349
2022-10-23 04:24:01+00:00,222.0,7.89,242.0,11.11,12.41,47.59359,-54.27349
2022-10-23 04:34:01+00:00,226.0,5.95,235.0,7.7,12.41,47.59359,-54.27349
2022-10-23 04:44:01+00:00,227.0,5.28,225.0,6.4,12.41,47.59359,-54.27349
2022-10-23 04:54:01+00:00,225.0,5.56,229.0,6.69,12.41,47.59359,-54.27349
2022-10-23 05:04:01+00:00,224.0,6.12,230.0,8.21,12.41,47.59359,-54.27349
2022-10-23 05:14:00+00:00,230.0,5.62,239.0,7.21,12.41,47.59359,-54.27349
2022-10-23 05:24:00+00:00,234.0,6.45,250.0,10.29,12.41,47.59359,-54.27349
2022-10-23 05:34:00+00:00,227.0,6.03,243.0,9.9,12.41,47.59359,-54.27349
2022-10-23 05:44:00+00:00,226.0,5.72,240.0,10.31,12.41,47.59359,-54.27349
2022-10-23 05:54:00+00:00,235.0,5.34,249.0,7.86,12.41,47.59359,-54.27349
2022-10-23 06:04:00+00:00,221.0,6.12,220.0,7.32,12.41,47.59359,-54.27349
2022-10-23 06:14:01+00:00,227.0,6.45,241.0,10.5,12.41,47.59359,-54.27349
2022-10-23 06:24:01+00:00,222.0,5.79,218.0,6.47,12.41,47.59359,-54.27349
2022-10-23 06:34:01+00:00,225.0,5.96,218.0,6.93,12.41,47.59359,-54.27349
2022-10-23 06:44:01+00:00,233.0,7.0,243.0,10.44,12.41,47.59359,-54.27349
2022-10-23 06:54:01+00:00,241.0,9.26,246.0,11.46,12.41,47.59359,-54.27349
2022-10-23 07:04:01+00:00,230.0,6.48,249.0,10.37,12.41,47.59359,-54.27349
2022-10-23 07:14:00+00:00,246.0,9.6,245.0,11.29,12.33,47.59359,-54.27349
2022-10-23 07:24:00+00:00,249.0,10.1,246.0,11.35,12.33,47.59359,-54.27349
2022-10-23 07:34:00+00:00,244.0,9.34,248.0,11.32,12.33,47.59359,-54.27349
2022-10-23 07:44:00+00:00,246.0,9.71,252.0,11.17,12.33,47.59359,-54.27349
2022-10-23 07:54:00+00:00,250.0,8.63,256.0,10.53,12.33,47.59359,-54.27349
2022-10-23 08:04:00+00:00,249.0,8.98,248.0,10.79,12.33,47.59359,-54.27349
2022-10-23 08:14:00+00:00,252.0,8.87,257.0,10.72,12.33,47.59359,-54.27349
2022-10-23 08:24:00+00:00,248.0,8.99,254.0,10.56,12.33,47.59359,-54.27349
2022-10-23 08:34:00+00:00,246.0,9.57,254.0,11.28,12.33,47.59359,-54.27349
2022-10-23 08:44:00+00:00,249.0,9.65,251.0,11.09,12.33,47.59359,-54.27349
2022-10-23 08:54:00+00:00,247.0,10.13,245.0,11.15,12.33,47.59359,-54.27349
2022-10-23 09:04:00+00:00,239.0,9.57,242.0,11.2,12.33,47.59359,-54.27349
2022-10-23 09:14:01+00:00,240.0,9.86,239.0,11.71,12.33,47.59359,-54.27349
2022-10-23 09:24:01+00:00,243.0,9.47,244.0,10.86,12.33,47.59359,-54.27349
2022-10-23 09:34:01+00:00,242.0,8.65,247.0,11.09,12.33,47.59359,-54.27349
2022-10-23 09:44:01+00:00,254.0,8.39,258.0,10.81,12.33,47.59359,-54.27349
2022-10-23 09:54:01+00:00,252.0,8.78,247.0,9.86,12.33,47.59359,-54.27349
2022-10-23 10:04:01+00:00,249.0,10.03,248.0,11.28,12.33,47.59359,-54.27349
2022-10-23 10:14:01+00:00,255.0,8.58,253.0,9.34,12.33,47.59359,-54.27349
2022-10-23 10:24:01+00:00,254.0,8.48,259.0,10.61,12.33,47.59359,-54.27349
2022-10-23 10:34:01+00:00,251.0,8.76,254.0,10.18,12.33,47.59359,-54.27349
2022-10-23 10:44:01+00:00,260.0,8.41,264.0,9.3,12.33,47.59359,-54.27349
2022-10-23 10:54:01+00:00,256.0,8.53,255.0,9.25,12.33,47.59359,-54.27349
2022-10-23 11:04:01+00:00,248.0,8.61,251.0,10.07,12.33,47.59359,-54.27349
2022-10-23 11:14:00+00:00,245.0,9.22,249.0,11.26,12.57,47.59359,-54.27349
2022-10-23 11:24:00+00:00,248.0,9.75,254.0,10.98,12.57,47.59359,-54.27349
2022-10-23 11:34:00+00:00,248.0,8.69,251.0,10.6,12.57,47.59359,-54.27349
2022-10-23 11:44:00+00:00,250.0,9.66,253.0,11.09,12.57,47.59359,-54.27349
2022-10-23 11:54:00+00:00,248.0,9.18,252.0,10.83,12.57,47.59359,-54.27349
2022-10-23 12:04:00+00:00,245.0,10.0,246.0,11.11,12.57,47.59359,-54.27349
2022-10-23 12:14:00+00:00,250.0,8.66,252.0,10.9,14.32,47.59359,-54.27349
2022-10-23 12:24:00+00:00,254.0,8.2,255.0,10.27,14.32,47.59359,-54.27349
2022-10-23 12:34:00+00:00,248.0,8.29,250.0,9.93,14.32,47.59359,-54.27349
2022-10-23 12:44:00+00:00,251.0,8.25,254.0,10.07,14.32,47.59359,-54.27349
2022-10-23 12:54:00+00:00,239.0,8.67,246.0,10.67,14.32,47.59359,-54.27349
2022-10-23 13:04:00+00:00,242.0,8.51,247.0,9.73,14.32,47.59359,-54.27349
2022-10-23 13:14:01+00:00,242.0,8.42,237.0,9.2,13.92,47.59359,-54.27349
2022-10-23 13:24:01+00:00,238.0,9.41,244.0,10.83,13.92,47.59359,-54.27349
2022-10-23 13:34:01+00:00,235.0,8.03,241.0,10.92,13.92,47.59359,-54.27349
2022-10-23 13:44:01+00:00,237.0,9.18,239.0,10.9,13.92,47.59359,-54.27349
2022-10-23 13:54:01+00:00,234.0,8.12,242.0,10.72,13.92,47.59359,-54.27349
2022-10-23 14:04:01+00:00,236.0,8.93,242.0,11.79,13.92,47.59359,-54.27349
2022-10-23 14:14:00+00:00,236.0,8.21,243.0,10.49,13.44,47.59359,-54.27349
2022-10-23 14:24:00+00:00,239.0,8.47,241.0,10.7,13.44,47.59359,-54.27349
2022-10-23 14:34:00+00:00,240.0,8.94,245.0,11.12,13.44,47.59359,-54.27349
2022-10-23 14:44:00+00:00,242.0,8.42,245.0,9.79,13.44,47.59359,-54.27349
2022-10-23 14:54:00+00:00,256.0,7.78,259.0,9.59,13.44,47.59359,-54.27349
2022-10-23 15:04:00+00:00,248.0,7.75,248.0,8.35,13.44,47.59359,-54.27349
2022-10-23 15:14:01+00:00,254.0,7.95,253.0,9.21,13.68,47.59359,-54.27349
2022-10-23 15:24:01+00:00,246.0,8.36,249.0,9.07,13.68,47.59359,-54.27349
2022-10-23 15:34:01+00:00,251.0,7.28,246.0,8.87,13.68,47.59359,-54.27349
2022-10-23 15:44:01+00:00,259.0,7.51,255.0,8.43,13.68,47.59359,-54.27349
2022-10-23 15:54:01+00:00,265.0,8.11,262.0,9.09,13.68,47.59359,-54.27349
2022-10-23 16:04:01+00:00,264.0,9.18,264.0,10.43,13.68,47.59359,-54.27349
2022-10-23 16:14:00+00:00,262.0,8.0,259.0,8.68,13.68,47.59359,-54.27349
2022-10-23 16:24:00+00:00,272.0,7.12,277.0,8.3,13.68,47.59359,-54.27349
2022-10-23 16:34:00+00:00,278.0,8.14,278.0,8.85,13.68,47.59359,-54.27349
2022-10-23 16:44:00+00:00,277.0,8.23,279.0,9.66,13.68,47.59359,-54.27349
2022-10-23 16:54:00+00:00,269.0,8.9,269.0,10.45,13.68,47.59359,-54.27349
2022-10-23 17:04:00+00:00,259.0,7.47,259.0,8.23,13.68,47.59359,-54.27349
2022-10-23 17:14:00+00:00,264.0,7.55,259.0,7.99,13.92,47.59359,-54.27349
2022-10-23 17:24:00+00:00,250.0,7.35,252.0,8.1,13.92,47.59359,-54.27349
2022-10-23 17:34:00+00:00,233.0,5.2,231.0,5.83,13.92,47.59359,-54.27349
2022-10-23 17:44:00+00:00,239.0,4.81,233.0,5.48,13.92,47.59359,-54.27349
2022-10-23 17:54:00+00:00,230.0,5.94,225.0,6.83,13.92,47.59359,-54.27349
2022-10-23 18:04:00+00:00,228.0,6.38,229.0,7.39,13.92,47.59359,-54.27349
2022-10-23 18:14:00+00:00,225.0,6.01,228.0,6.77,14.08,47.59359,-54.27349
2022-10-23 18:24:00+00:00,232.0,5.33,234.0,6.08,14.08,47.59359,-54.27349
2022-10-23 18:34:00+00:00,252.0,5.3,251.0,6.35,14.08,47.59359,-54.27349
2022-10-23 18:44:00+00:00,273.0,4.91,273.0,5.86,14.08,47.59359,-54.27349
2022-10-23 18:54:00+00:00,274.0,5.54,277.0,6.03,14.08,47.59359,-54.27349
2022-10-23 19:04:00+00:00,275.0,5.82,278.0,6.51,14.08,47.59359,-54.27349
2022-10-23 19:14:01+00:00,269.0,5.62,268.0,7.99,13.84,47.59359,-54.27349
2022-10-23 19:24:01+00:00,268.0,5.85,271.0,6.28,13.84,47.59359,-54.27349
2022-10-23 19:34:01+00:00,276.0,5.66,283.0,6.43,13.84,47.59359,-54.27349
2022-10-23 19:44:01+00:00,268.0,6.42,269.0,7.59,13.84,47.59359,-54.27349
2022-10-23 19:54:01+00:00,270.0,5.64,270.0,6.16,13.84,47.59359,-54.27349
2022-10-23 20:04:01+00:00,267.0,5.39,267.0,5.85,13.84,47.59359,-54.27349
2022-10-23 20:14:00+00:00,259.0,4.99,258.0,6.35,13.29,47.59359,-54.27349
2022-10-23 20:24:00+00:00,266.0,5.57,264.0,6.35,13.29,47.59359,-54.27349
2022-10-23 20:34:00+00:00,264.0,5.8,271.0,6.59,13.29,47.59359,-54.27349
2022-10-23 20:44:00+00:00,261.0,4.45,266.0,5.74,13.29,47.59359,-54.27349
2022-10-23 20:54:00+00:00,256.0,5.05,258.0,6.16,13.29,47.59359,-54.27349
2022-10-23 21:04:00+00:00,260.0,5.65,257.0,6.06,13.29,47.59359,-54.27349
2022-10-23 21:14:00+00:00,258.0,5.32,259.0,6.8,12.65,47.59359,-54.27349
2022-10-23 21:24:00+00:00,255.0,6.02,250.0,6.73,12.65,47.59359,-54.27349
2022-10-23 21:34:00+00:00,255.0,6.04,259.0,6.71,12.65,47.59359,-54.27349
2022-10-23 21:44:00+00:00,247.0,5.45,255.0,6.5,12.65,47.59359,-54.27349
2022-10-23 21:54:00+00:00,256.0,5.46,260.0,6.34,12.65,47.59359,-54.27349
2022-10-23 22:04:00+00:00,261.0,5.88,259.0,7.16,12.65,47.59359,-54.27349
2022-10-23 22:14:00+00:00,260.0,5.29,258.0,5.96,12.49,47.59359,-54.27349
2022-10-23 22:24:00+00:00,257.0,5.7,256.0,6.06,12.49,47.59359,-54.27349
2022-10-23 22:34:00+00:00,256.0,5.41,258.0,5.88,12.49,47.59359,-54.27349
2022-10-23 22:44:00+00:00,252.0,5.08,251.0,5.93,12.49,47.59359,-54.27349
2022-10-23 22:54:00+00:00,247.0,6.15,247.0,7.2,12.49,47.59359,-54.27349
2022-10-23 23:04:00+00:00,242.0,4.97,241.0,5.79,12.49,47.59359,-54.27349
2022-10-23 23:14:00+00:00,238.0,5.41,245.0,6.33,12.41,47.59359,-54.27349
2022-10-23 23:24:00+00:00,244.0,4.53,238.0,4.94,12.41,47.59359,-54.27349
2022-10-23 23:34:00+00:00,249.0,3.6,237.0,4.13,12.41,47.59359,-54.27349
2022-10-23 23:44:00+00:00,250.0,3.84,253.0,4.39,12.41,47.59359,-54.27349
2022-10-23 23:54:00+00:00,243.0,4.37,248.0,4.79,12.41,47.59359,-54.27349
